{"data":{"norad_id":55993,"intl_designator":"2023-042H","name":"STARLINK-5969","alt_names":[],"object_type":"PAYLOAD","status":"ACTIVE","operator":null,"country":"US","launch_date":"2023-03-24","launch_site_code":"AFETR","launch_vehicle":null,"mission":null,"orbit_class":"UNKNOWN","rcs_meters":null,"size_class":null,"mass_kg":null,"dimensions":null,"purposes":["comms"],"wikipedia_slug":null,"has_3d_model":false,"image_url":null,"decayed_at":null,"tle_current":{"epoch":"2026-05-24T22:48:32.522688Z","epoch_age_seconds":75996,"freshness":"FRESH","line1":"1 55993U 23042H   26144.95037642 -.00000605  00000+0 -12447-4 0  9999","line2":"2 55993  43.0061 348.8376 0001661 265.0444  95.0218 15.27573840174532","mean_motion":15.2757384,"eccentricity":0.0001661,"inclination_deg":43.0061,"raan_deg":348.8376,"arg_perigee_deg":265.0444,"mean_anomaly_deg":95.0218,"bstar":-1.2447e-5,"rev_number":17453,"period_min":94.267128847925,"perigee_km":481.92789528337,"apogee_km":484.20718743201,"semimajor_km":6861.2045413577,"source":"CELESTRAK","updated_at":"2026-05-25T13:38:17.922868Z"}}}